Temp
24 25 25 25 26 27 27 27 26 27 27 28 28 28 28 28 28 28 28 28 28 28 28 28 28 28 28 28 28 28 28 27 27 27 26 26 25 26 26 26 26 26 26 26 26 26 26 27 27 27 27 27 26 27 27 27 27 27 27 27 26 26 25 24 24 24 25 25 25 24 24 24 25 25 24 24 24 24 24 24 24 24 24 24 24
25 25 25 25 26 26 27 27 27 27 28 28 28 28 28 28 28 28 29 29 29 29 28 28 28 29 28 28 28 28 28 28 27 27 26 26 26 26 26 26 26 26 25 26 26 26 26 26 27 26 26 26 27 27 27 27 27 27 27 27 26 26 25 25 24 23 23 24 25 24 24 24 25 25 24 24 24 24 24 24 24 24 24 24 24
25 25 25 25 25 26 27 27 28 28 28 28 28 29 29 29 29 29 29 29 29 29 28 28 28 28 28 28 28 28 28 27 27 27 26 26 26 26 26 26 26 26 25 26 26 26 26 26 26 26 26 26 26 26 26 26 26 26 26 26 25 25 25 24 24 23 22 23 24 23 23 24 24 24 25 24 24 24 24 24 24 24 24 24 24
25 25 25 25 25 26 26 26 27 28 28 28 29 29 29 29 29 29 29 29 29 29 29 28 28 28 28 28 28 28 28 27 27 27 26 26 26 26 26 26 26 26 26 26 26 26 26 26 26 26 26 26 26 26 26 26 26 26 25 25 25 24 24 23 24 23 22 22 23 23 23 23 23 23 24 24 24 24 24 24 24 23 23 24 24
25 25 25 24 25 25 26 26 26 27 28 29 29 29 29 30 29 29 29 29 29 29 29 29 29 28 28 28 28 28 28 28 27 27 27 27 27 27 27 26 26 26 26 26 26 26 27 26 26 26 26 25 25 25 25 25 25 25 24 24 24 24 23 23 23 23 22 22 22 23 23 23 22 23 23 23 23 23 24 24 23 23 23 23 23
24 24 25 25 25 25 25 25 26 26 27 29 29 29 29 29 30 30 29 29 29 29 29 29 29 28 28 28 28 28 28 28 27 27 27 27 27 27 27 27 26 26 26 26 26 27 27 26 26 26 25 25 25 25 25 24 24 24 24 23 23 23 23 23 22 22 22 22 22 22 22 22 22 22 22 22 22 22 22 23 23 23 23 23 23
23 23 24 25 25 25 24 25 26 26 26 27 28 29 30 30 30 30 30 29 29 30 29 29 29 28 28 28 28 28 28 27 27 27 27 27 28 28 27 27 26 26 26 26 26 26 26 26 25 25 25 25 25 24 24 24 23 23 23 23 23 23 22 22 22 22 21 22 22 21 21 21 21 21 21 21 22 21 21 22 23 23 23 23 23
23 22 23 24 24 24 24 24 25 24 25 26 27 27 29 30 30 30 30 30 29 30 30 29 29 29 28 28 28 28 28 27 27 27 27 27 27 27 27 27 27 26 26 26 26 26 25 25 25 25 25 24 24 24 24 23 23 23 23 23 22 22 22 22 22 21 21 21 21 21 21 21 21 21 21 21 21 21 21 21 21 22 22 23 23
22 22 22 23 24 24 24 24 24 23 24 26 26 26 27 29 29 30 30 30 29 29 29 30 29 29 29 28 28 27 27 27 27 27 27 27 27 27 27 27 27 26 26 27 26 24 24 25 25 24 24 24 24 24 23 23 23 23 23 23 22 22 21 21 21 21 21 21 20 20 20 21 21 21 21 21 21 21 21 21 21 21 22 22 22
22 22 22 22 23 23 24 24 24 23 24 24 25 26 26 27 28 29 30 30 29 29 29 29 30 29 29 28 28 28 27 27 27 27 27 27 27 27 27 27 27 26 26 25 23 22 23 24 24 24 24 24 23 23 23 23 23 22 22 22 22 22 21 21 21 21 21 20 20 20 20 21 21 21 20 20 20 21 21 21 21 21 21 22 22
22 22 22 22 22 22 23 23 23 23 24 24 24 25 25 26 27 28 29 29 29 29 29 29 29 29 29 29 28 28 27 27 27 27 27 27 27 27 26 26 26 26 25 24 23 23 23 23 24 24 24 23 23 23 23 22 22 22 22 22 21 21 21 21 21 21 21 20 20 20 20 20 20 20 20 20 20 20 20 20 20 21 21 21 21
23 22 22 22 22 22 22 22 23 23 24 24 23 23 24 24 25 26 27 28 28 29 29 29 29 29 29 29 28 28 27 27 27 27 27 27 27 27 26 26 26 25 25 25 24 23 22 23 24 24 23 23 23 23 22 22 22 22 21 21 21 21 20 20 20 20 20 20 20 20 19 19 19 19 19 20 21 21 20 20 20 21 21 20 20
22 22 22 22 22 22 22 22 23 23 23 23 23 23 24 25 25 25 26 26 26 26 27 28 28 28 28 29 29 28 27 27 27 27 27 27 27 27 27 27 25 24 24 25 24 23 22 22 23 23 22 22 23 22 22 22 22 21 21 20 20 20 20 20 20 20 20 20 19 19 19 19 19 18 19 20 20 20 21 21 21 20 20 20 19
21 21 21 21 21 22 21 22 22 22 22 23 23 23 24 24 24 23 23 24 25 25 25 25 26 27 28 28 28 28 28 27 27 27 27 27 27 27 27 26 25 24 24 24 24 23 22 22 22 22 22 22 22 22 22 22 21 21 20 19 20 20 20 19 19 19 19 19 19 19 18 18 18 18 20 20 20 20 21 21 20 20 20 20 19
20 20 20 21 21 21 21 21 21 21 21 22 23 22 22 23 22 21 21 22 25 26 25 24 25 25 26 27 27 27 26 27 27 27 27 27 27 27 26 25 24 23 24 23 23 22 21 21 21 21 21 21 21 22 22 21 21 20 19 19 19 19 19 19 19 19 18 19 19 19 18 18 18 18 19 20 19 20 20 20 21 20 20 20 19
20 19 19 20 20 20 21 21 21 21 21 22 22 22 22 21 21 21 21 22 23 23 23 24 24 24 24 25 25 25 25 26 26 26 26 26 26 26 25 24 23 23 22 22 21 21 21 21 21 21 21 20 20 21 21 21 20 19 19 18 18 18 18 18 18 18 18 18 18 18 18 18 18 18 18 19 19 20 20 20 21 21 20 19 19
19 19 19 19 19 19 20 20 20 20 20 21 21 21 21 21 21 21 21 21 21 22 22 23 23 24 24 24 25 25 25 25 25 25 25 25 25 25 24 23 22 22 21 20 20 20 20 20 21 20 20 20 20 20 20 20 20 19 19 18 18 17 17 17 18 18 18 18 18 18 18 18 18 18 18 18 19 19 20 19 19 20 20 19 19
18 18 18 18 18 18 18 19 19 20 20 20 20 21 21 21 21 21 20 20 20 21 22 22 22 23 24 24 24 24 24 24 24 24 24 25 24 24 23 22 21 20 20 19 19 19 19 20 20 20 20 19 20 20 20 20 20 19 18 18 18 17 17 17 18 18 17 18 18 18 18 18 17 17 17 17 18 18 18 18 18 19 19 19 19
17 17 17 17 17 17 18 18 19 19 19 20 20 20 21 20 20 20 20 19 20 21 21 21 22 23 23 23 23 23 23 23 23 23 24 24 24 23 22 22 20 19 19 18 18 17 18 19 19 19 19 19 19 20 20 20 19 19 18 18 18 17 18 18 18 18 18 18 18 18 18 18 17 17 17 17 17 17 17 17 18 18 18 18 18
16 17 17 17 17 17 17 17 18 18 19 19 20 20 20 20 20 20 19 19 20 20 20 20 21 21 22 21 21 21 22 22 22 22 23 23 23 22 22 21 20 19 18 18 17 16 17 17 18 18 18 19 19 19 19 19 19 19 18 18 18 17 18 18 18 18 18 18 18 17 18 17 17 17 17 17 17 17 17 17 17 17 17 17 17
16 16 16 16 16 16 16 17 17 17 18 18 19 19 19 19 19 19 19 19 20 20 19 19 20 20 20 20 20 20 20 20 21 21 22 22 22 22 21 20 19 18 18 17 16 16 16 16 17 17 18 18 19 19 19 19 19 18 18 18 18 18 18 18 18 18 18 18 18 18 17 17 17 17 17 16 16 17 17 17 17 17 17 17 17
16 16 16 16 16 16 16 16 16 16 16 17 18 18 18 18 19 19 18 18 18 19 18 18 18 18 18 19 19 18 18 19 19 20 21 21 21 21 20 19 19 18 17 16 15 16 16 16 16 17 18 18 18 18 18 18 18 18 18 18 18 18 18 18 18 18 18 17 17 17 17 17 17 17 17 17 17 17 17 17 17 17 17 17 17
17 17 16 16 16 16 16 16 16 16 16 16 17 17 17 17 17 17 17 17 17 17 17 17 17 17 17 17 17 17 17 17 18 18 20 20 20 20 19 18 18 18 17 15 15 15 15 16 16 17 17 17 17 17 17 17 17 17 17 17 17 18 18 18 18 18 17 17 17 17 17 17 17 17 17 17 17 17 17 17 17 17 17 17 17
18 18 17 17 17 16 15 15 15 15 15 16 16 16 16 16 16 16 16 16 16 16 16 16 17 16 16 16 16 16 17 18 17 17 18 19 19 18 18 18 18 18 17 15 15 15 15 15 16 16 16 17 17 17 17 17 17 17 17 17 17 18 18 18 18 18 18 18 17 17 17 17 17 17 17 17 17 17 17 18 18 18 17 17 17
18 18 18 18 18 17 17 15 15 15 15 15 15 16 16 16 16 16 16 16 16 15 15 15 15 15 15 15 15 15 16 17 17 16 16 17 18 17 17 17 17 17 16 15 15 15 15 16 16 16 16 17 17 17 17 17 17 17 17 17 17 18 18 18 18 18 18 18 18 18 18 17 17 17 17 17 17 17 17 18 18 18 18 18 18
19 18 18 18 18 18 17 16 15 15 14 14 14 15 15 15 16 16 16 16 16 16 15 15 15 15 14 14 14 14 14 15 16 15 15 15 16 16 16 16 16 16 16 15 15 15 15 16 16 16 17 17 17 18 18 18 18 18 18 17 17 17 18 18 18 18 18 18 18 18 18 18 18 18 17 17 17 17 17 17 18 18 18 18 18
19 19 18 18 18 17 17 16 15 14 14 14 14 14 14 15 15 16 16 16 16 16 16 15 15 15 14 14 14 14 14 14 14 14 15 15 15 15 16 16 15 16 15 15 15 15 16 16 16 17 17 17 17 18 18 18 18 18 18 18 18 18 17 17 17 18 18 18 18 18 18 18 18 18 18 17 17 17 17 17 17 17 18 18 18
20 19 19 19 18 17 16 16 15 14 14 14 14 14 15 15 15 15 16 16 16 16 15 15 15 14 14 14 14 14 14 13 13 14 14 15 15 15 15 16 15 15 15 16 16 16 17 17 17 17 17 17 18 18 18 18 18 17 17 17 18 18 17 17 17 17 17 17 17 17 17 17 17 18 18 17 17 17 17 17 17 17 17 18 17
21 21 20 20 19 18 17 17 16 15 14 14 13 14 15 15 15 16 16 16 16 16 15 15 15 14 14 14 14 14 13 13 14 15 15 16 16 16 16 16 16 16 16 17 17 17 17 18 18 18 18 18 18 18 18 17 17 17 17 17 17 17 17 17 17 17 17 17 17 17 17 17 17 17 17 17 17 17 16 16 17 17 17 17 17
22 22 22 21 20 20 19 18 17 16 15 13 13 13 14 15 15 15 15 16 16 16 15 15 15 15 15 15 15 15 14 14 15 16 16 16 17 17 17 17 17 16 16 16 17 17 18 18 19 19 19 18 18 18 17 17 17 16 16 16 16 16 16 17 17 17 17 17 17 17 17 17 17 17 17 17 17 17 16 16 17 17 17 17 16
21 21 21 21 21 21 20 18 17 16 15 14 13 13 13 14 15 15 15 16 16 16 16 16 16 16 16 15 15 15 15 16 16 16 16 16 16 16 16 16 16 16 16 17 17 18 18 18 18 18 18 18 18 18 17 17 17 16 16 16 15 16 16 16 17 17 17 17 17 17 17 17 17 17 17 17 17 17 16 16 16 16 16 16 16
20 21 20 20 20 21 20 19 18 17 16 16 15 14 14 13 14 15 16 16 16 16 16 16 16 16 16 15 15 15 16 16 16 16 16 16 16 16 16 17 17 17 17 18 18 18 18 17 17 17 17 17 17 17 17 17 16 16 16 16 15 15 15 16 16 16 16 16 16 16 16 16 17 17 16 16 17 17 16 16 15 15 15 16 16
20 20 20 20 20 20 20 20 19 18 18 17 17 16 16 15 14 14 15 16 16 16 16 16 15 15 15 15 15 16 16 16 16 16 16 16 17 17 17 17 18 18 18 17 17 17 17 17 17 17 17 16 16 16 16 16 16 16 15 15 15 15 15 15 15 16 16 15 15 16 16 16 16 16 16 16 16 16 16 15 15 15 15 15 15
20 20 20 20 20 20 20 20 20 19 18 18 18 18 17 17 16 16 16 16 15 15 15 16 16 16 16 15 15 16 16 16 16 16 17 17 17 17 17 17 17 17 17 17 17 16 16 16 16 16 16 16 16 16 15 15 15 15 15 15 14 14 14 14 15 15 15 15 15 15 15 15 16 16 16 15 15 15 15 15 15 14 14 14 15
20 21 21 20 20 20 20 20 20 19 19 18 18 18 17 17 17 17 16 16 15 14 15 15 16 16 16 16 16 16 16 16 17 17 17 17 17 17 17 17 17 17 17 16 16 16 16 16 16 16 15 15 15 15 15 15 15 15 15 15 14 14 14 14 14 15 15 15 15 15 15 15 15 15 15 15 15 15 15 15 14 14 14 14 14
21 21 21 21 21 20 20 20 20 20 20 19 19 18 18 17 17 17 16 16 15 15 14 15 15 16 16 16 16 16 16 17 17 17 17 17 17 17 17 17 16 16 16 16 16 16 16 16 16 15 15 15 15 15 15 15 15 15 15 15 14 14 14 14 14 14 15 15 15 15 15 14 14 15 15 14 14 14 14 14 14 14 14 13 14
22 21 21 21 21 20 20 20 20 20 20 20 20 19 19 18 17 17 17 16 16 16 15 15 15 16 16 16 16 17 17 17 17 17 18 18 18 17 17 17 17 16 16 16 16 16 16 16 16 16 16 15 15 15 15 15 15 15 15 15 15 15 14 14 14 14 14 14 14 14 14 14 14 14 14 14 14 14 14 14 14 14 13 13 13
21 21 21 21 20 20 20 20 21 21 20 20 20 20 20 19 19 18 18 17 17 17 17 16 16 16 16 16 17 17 17 17 18 18 18 18 18 17 17 17 17 16 16 16 16 16 16 16 16 16 15 15 15 15 15 15 15 15 15 15 15 15 14 14 14 14 14 14 14 14 14 14 14 14 14 14 14 13 13 13 13 13 13 13 12
20 21 21 20 20 20 20 20 21 21 21 21 21 20 20 20 19 19 19 18 18 18 18 18 17 17 17 17 17 17 18 18 18 18 18 18 18 18 17 17 17 16 16 16 16 16 16 15 15 15 16 16 15 15 15 15 15 15 15 15 15 15 14 14 14 14 14 14 14 13 13 14 14 13 13 14 14 13 13 13 13 13 13 12 12
21 20 20 20 21 21 21 21 21 21 21 21 21 21 20 20 20 19 19 19 19 19 19 18 18 17 17 17 17 17 18 19 19 19 18 18 18 18 17 17 17 17 16 16 16 16 15 15 15 15 16 16 16 16 16 16 15 15 15 14 14 14 14 13 13 13 13 13 13 13 13 13 14 13 13 13 13 13 13 12 12 12 12 12 12
21 20 20 20 21 21 22 22 22 22 22 21 21 21 21 20 21 21 20 20 20 20 19 19 18 18 17 17 17 17 18 19 19 19 18 18 18 18 18 17 17 17 17 16 16 16 16 15 15 15 16 16 16 15 15 15 15 15 15 14 14 14 14 13 13 13 13 13 13 13 13 13 13 13 13 13 13 13 13 12 12 12 12 12 11
20 20 21 21 21 22 22 22 22 22 22 22 22 21 21 21 21 21 21 20 20 20 19 19 18 18 18 18 18 18 18 19 19 19 19 18 18 18 18 18 17 17 17 16 16 16 16 16 15 15 15 15 15 15 15 15 15 15 14 14 13 13 13 13 13 13 13 13 13 13 13 13 13 13 13 13 13 13 12 12 12 11 11 11 11
20 20 21 21 21 22 22 22 21 21 21 21 22 22 21 21 21 21 21 21 20 20 19 19 18 18 18 18 18 18 18 19 19 19 18 18 18 18 18 17 17 17 16 16 16 16 16 15 15 15 15 14 14 14 14 14 14 14 14 13 13 13 12 12 12 12 13 13 13 13 13 12 12 13 13 13 13 12 11 11 11 11 11 11 11
20 20 20 20 21 22 22 22 21 21 21 21 21 21 21 22 21 21 22 21 21 20 20 19 19 18 18 18 18 18 19 19 19 19 18 18 18 18 17 17 17 17 16 16 16 16 16 15 15 14 14 14 14 13 13 13 13 13 13 13 12 12 12 12 12 12 12 12 13 13 13 12 12 12 12 13 12 12 11 11 11 11 11 11 10
20 20 20 21 21 21 21 21 21 21 21 21 21 21 21 21 21 21 22 22 21 21 20 20 19 19 19 19 19 19 19 19 19 19 19 19 18 18 17 17 17 17 17 16 16 16 15 15 14 14 14 13 13 13 13 12 12 12 12 11 11 11 11 11 11 12 12 12 12 13 13 12 12 12 12 12 12 11 11 11 10 10 10 10 10
20 20 21 21 21 21 21 21 21 20 21 21 21 21 21 21 21 21 21 21 21 21 20 20 19 20 20 19 19 20 20 19 19 19 19 19 18 18 17 17 17 17 16 16 16 15 15 14 14 14 14 13 13 13 12 12 12 11 11 11 10 10 10 10 11 11 11 11 12 12 12 12 12 11 11 11 11 11 11 10 10 10 10 10 10
20 20 21 21 21 21 21 21 20 20 21 21 21 21 21 21 21 21 21 21 21 21 20 20 20 20 20 19 19 19 19 19 19 19 19 18 18 18 17 17 17 16 16 15 15 15 14 14 14 13 13 12 12 12 12 12 11 10 10 10 10 10 9 9 10 10 11 11 11 11 12 12 11 10 10 10 10 10 10 10 9 10 9 9 9
20 20 21 21 21 21 20 20 20 20 21 21 21 21 21 21 22 21 21 21 21 21 21 20 20 19 19 19 19 19 19 19 19 19 18 18 18 18 17 17 16 16 15 15 14 14 14 13 13 12 12 12 12 12 12 11 11 10 10 10 10 9 9 9 10 10 10 11 11 11 11 11 11 10 10 10 10 10 10 9 9 9 9 9 9
21 21 21 21 21 21 21 20 20 20 21 21 21 21 21 21 21 21 20 21 21 21 21 21 20 19 19 19 19 19 19 19 19 18 18 18 17 17 17 17 16 16 15 14 14 13 13 13 12 12 12 12 12 12 11 11 10 10 10 10 9 8 8 9 9 10 10 10 11 11 11 10 10 10 10 10 10 10 9 9 9 9 9 9 9
21 21 21 21 21 21 20 20 20 21 21 20 20 20 20 20 20 20 20 20 20 20 20 21 20 20 19 19 19 19 19 19 18 18 18 17 17 16 16 16 16 15 15 14 13 13 13 12 12 12 12 12 12 12 11 11 10 10 10 9 9 8 8 9 9 10 10 10 10 10 10 10 9 9 9 9 9 9 9 9 8 8 9 9 9
21 21 21 21 21 20 20 20 20 20 20 20 20 20 20 20 20 20 20 20 20 20 20 20 20 20 20 19 19 19 19 19 19 18 18 17 16 16 16 15 15 15 14 14 13 13 12 12 12 12 12 12 12 11 11 11 10 10 10 9 8 8 8 8 9 9 9 10 10 10 10 9 9 9 9 9 8 8 8 8 8 9 9 9 9
Height
776 777 778 778 778 778 779 780 781 782 782 783 783 783 784 784 785 785 786 786 787 788 788 789 790 791 792 794 795 796 798 799 800 802 802 803 804 805 806 806 807 807 808 808 809 809 810 810 811 811 811 811 811 812 812 812 812 812 812 813 813 814 814 815 816 814 813 813 813 812 811 812 813 814 814 812 812 813 813 814 814 814 814 813 813
774 775 776 776 776 777 778 778 779 780 781 781 781 782 782 783 784 784 784 785 786 786 787 788 789 789 790 791 793 794 795 797 799 800 801 802 803 804 805 804 805 806 806 807 807 808 809 809 810 810 810 810 810 811 811 811 812 812 812 812 812 812 812 813 813 813 812 812 812 811 810 811 812 813 813 812 811 812 813 814 814 814 814 813 811
773 774 774 775 775 776 776 777 778 778 779 780 780 780 781 781 782 783 783 783 784 785 786 787 788 789 789 790 791 792 794 795 797 798 799 800 801 802 803 803 803 804 805 806 806 807 808 808 809 809 809 809 810 810 811 811 811 811 811 811 811 811 811 811 811 811 811 811 810 810 809 810 812 812 812 811 811 811 812 813 813 813 812 812 810
772 772 772 773 773 774 775 775 776 777 777 778 779 779 779 780 781 782 782 782 783 784 785 786 787 788 789 790 791 792 793 794 795 796 797 798 799 800 801 802 802 803 804 805 805 806 806 807 807 808 809 809 809 809 809 810 810 810 810 810 810 811 811 811 810 810 810 810 811 810 810 810 811 811 812 811 811 812 812 812 812 812 811 810 809
771 771 771 772 772 772 773 773 773 775 776 776 777 778 779 779 779 780 781 781 782 782 784 785 785 786 788 789 790 791 792 793 794 795 796 797 798 799 800 800 801 802 803 803 804 805 805 805 806 807 807 808 808 808 808 809 809 809 809 809 809 810 810 810 810 809 809 810 810 810 810 810 810 811 811 810 810 811 812 812 811 811 811 810 809
769 769 770 770 771 771 771 771 771 772 774 775 776 777 778 778 778 779 779 780 781 781 782 784 785 785 787 788 789 790 792 793 794 794 795 796 797 798 798 799 800 801 802 802 803 803 804 804 805 806 806 807 807 807 807 807 807 807 808 808 808 808 808 809 809 808 808 809 809 810 810 809 809 810 809 808 807 808 811 812 811 811 810 810 809
766 767 767 768 770 770 771 771 771 771 773 774 775 775 776 777 777 777 778 779 780 781 782 783 784 785 786 787 789 790 790 792 792 793 794 795 796 797 797 798 799 800 801 801 802 802 803 803 804 805 806 806 807 807 806 806 806 806 806 807 807 807 807 807 807 806 806 807 807 808 809 808 807 807 808 806 805 805 809 812 812 811 810 809 808
765 766 766 766 768 769 770 771 771 772 772 771 772 773 774 775 775 776 777 778 779 780 781 782 783 785 786 787 788 789 790 790 791 792 793 794 795 796 796 797 798 799 799 800 800 801 801 802 803 804 805 806 806 806 806 805 805 805 805 806 806 806 806 806 805 805 805 805 805 806 807 807 806 805 805 804 804 806 810 813 813 812 811 809 808
765 765 766 766 766 767 768 769 770 772 772 769 769 771 772 773 774 775 776 776 778 779 780 781 782 783 785 786 788 788 789 790 790 791 792 793 794 795 795 796 797 798 799 799 799 800 801 801 803 803 804 804 805 805 805 805 804 805 805 805 805 805 805 805 805 805 805 805 805 805 805 805 806 805 804 803 804 807 810 812 812 812 811 810 808
765 765 765 765 766 766 766 768 769 769 770 770 771 771 771 772 773 774 775 776 777 778 779 780 781 782 784 785 787 788 788 789 789 790 791 791 792 793 794 795 796 797 798 799 801 802 802 802 802 802 802 802 803 803 803 803 803 804 804 804 804 804 804 804 804 804 805 805 804 804 804 806 807 807 806 805 806 807 809 811 812 812 811 810 808
764 764 764 764 765 766 766 767 768 768 768 770 771 771 771 772 772 773 774 775 776 777 778 780 781 782 783 784 785 786 787 788 788 789 790 790 791 792 793 794 794 796 797 797 798 800 801 801 801 800 800 801 801 802 802 802 803 803 804 803 803 803 803 803 803 803 804 804 804 804 805 806 807 808 809 807 806 807 809 811 811 810 810 809 809
764 764 764 764 764 765 766 767 767 766 765 767 769 770 771 771 771 772 773 775 776 776 778 779 780 782 782 782 783 784 785 786 787 788 789 789 790 791 792 793 793 794 794 794 795 797 800 801 800 799 799 800 800 800 801 802 802 802 803 803 803 802 802 802 802 802 803 803 804 805 806 806 806 808 809 807 805 806 808 809 809 809 808 809 809
764 763 762 763 762 763 765 764 764 764 764 765 767 767 768 769 769 771 772 773 775 775 777 778 779 781 781 782 782 783 784 785 786 787 788 788 789 790 791 793 792 792 793 794 795 797 799 799 799 798 798 798 799 799 800 800 801 802 802 802 802 802 802 801 802 802 802 803 804 805 806 806 806 807 807 806 805 805 806 807 807 807 807 808 809
764 762 761 761 761 761 762 761 761 762 762 763 764 764 764 766 768 770 771 772 772 773 775 777 778 779 780 781 782 782 782 783 784 786 787 787 788 789 791 792 792 792 793 794 794 795 797 797 797 797 797 797 798 799 799 800 800 801 801 801 802 802 802 802 803 804 804 804 804 804 806 807 807 806 806 806 806 806 806 806 807 806 807 807 808
763 762 761 760 759 759 759 759 759 760 761 761 762 761 763 765 767 770 773 772 771 770 771 773 775 777 779 780 781 781 781 782 783 784 785 786 787 788 790 791 791 791 792 793 794 795 795 796 796 796 796 797 798 798 798 799 800 800 801 802 803 802 802 803 804 804 805 805 804 805 806 807 807 806 806 806 806 806 806 807 807 807 807 808 809
764 763 761 760 759 758 758 758 758 759 760 760 760 761 762 764 766 768 770 771 771 770 770 771 773 775 778 779 780 780 780 781 782 783 784 785 786 788 789 790 790 791 792 792 793 794 794 795 795 795 796 796 797 798 798 798 799 801 802 803 804 804 805 806 806 806 807 807 806 807 808 809 809 808 807 807 806 806 806 807 808 808 807 808 809
765 764 763 761 759 758 757 756 757 758 759 759 759 760 761 762 763 765 766 768 769 770 770 770 771 774 776 777 778 778 779 780 780 782 783 784 786 787 788 788 789 790 791 792 793 793 793 794 795 795 795 795 796 797 798 799 799 801 802 804 806 806 807 808 809 808 809 809 809 809 810 810 810 809 808 807 806 806 806 807 808 809 809 809 810
767 765 764 762 760 759 757 756 756 756 758 758 759 758 757 758 760 761 763 765 766 768 768 769 770 772 774 775 776 777 778 779 779 780 781 783 785 786 786 787 788 790 791 792 793 793 794 794 795 795 795 795 796 797 798 799 800 801 803 804 806 808 809 810 810 810 811 811 811 811 811 811 810 810 809 809 808 808 808 809 810 810 810 811 812
767 766 765 763 761 759 757 756 755 754 755 756 756 755 754 756 758 759 761 763 765 766 767 767 769 770 771 773 774 774 776 777 778 778 779 781 783 784 785 786 788 790 791 792 793 794 794 794 794 794 794 795 796 797 798 799 800 802 804 805 807 809 810 811 812 812 812 812 812 812 812 812 812 812 812 812 811 811 811 812 812 812 812 813 814
768 767 765 763 762 760 757 756 755 753 753 754 754 753 753 754 756 757 758 761 763 764 765 766 768 769 769 771 772 773 775 776 777 777 778 780 781 781 783 785 787 789 790 792 793 794 794 795 795 795 795 795 796 797 798 799 801 803 805 806 808 811 812 813 813 813 813 813 813 813 814 815 815 815 815 815 815 815 815 815 815 815 815 816 817
768 767 766 764 763 761 759 758 756 755 754 754 753 753 753 753 754 755 756 757 759 761 764 765 766 767 768 769 771 772 774 775 776 776 777 778 779 780 781 783 785 787 789 791 793 794 795 796 797 797 797 797 797 798 799 800 802 803 805 807 809 811 813 814 814 814 814 814 815 815 816 817 817 817 818 818 818 818 818 818 818 818 818 818 819
769 768 766 765 764 763 761 759 758 757 756 755 754 754 753 754 754 755 756 756 757 759 762 763 764 766 768 769 770 771 773 775 776 776 776 777 777 778 780 783 784 785 788 791 793 795 797 798 799 800 799 799 800 801 802 803 804 805 807 808 810 812 814 815 815 815 815 815 816 817 818 818 819 819 819 820 820 820 820 820 820 820 820 820 821
769 768 767 767 765 764 763 762 760 759 758 757 756 756 756 755 755 757 758 758 759 760 761 762 764 766 768 770 771 772 773 773 775 777 775 775 776 776 779 782 784 785 789 792 795 797 798 800 802 803 802 802 803 803 805 806 808 808 809 810 812 814 815 816 816 816 816 817 817 818 819 819 820 820 821 821 821 822 822 822 822 822 822 823 823
770 769 769 768 766 766 766 765 764 763 762 761 760 760 760 759 759 760 761 761 762 762 762 764 767 769 771 773 773 774 774 773 776 780 775 769 772 777 778 782 785 787 790 795 797 799 800 801 804 806 806 806 806 807 809 811 811 810 810 812 814 816 817 817 817 817 817 818 819 819 820 821 821 821 822 823 823 823 823 823 824 824 824 825 825
771 771 770 769 768 768 768 768 767 766 765 765 764 764 764 763 763 764 764 764 764 765 765 766 769 771 774 775 775 776 777 773 777 783 777 765 767 776 780 783 787 789 793 798 800 801 802 802 803 807 810 810 809 810 814 815 813 812 813 814 816 817 818 818 818 818 819 819 820 821 821 822 822 823 824 824 824 824 824 825 825 826 826 826 827
772 772 772 771 771 771 770 771 771 770 769 768 768 767 767 767 766 767 767 766 766 766 767 769 772 774 776 778 777 778 780 778 779 784 781 772 772 779 783 786 791 794 796 801 805 806 807 805 804 809 813 813 811 813 817 817 815 814 815 817 818 819 820 820 820 820 821 821 822 822 822 823 824 824 825 825 825 826 826 826 826 827 827 827 827
773 773 773 773 773 773 774 774 774 773 773 772 771 771 771 770 770 770 770 770 770 771 772 774 777 778 779 781 781 781 784 784 783 784 785 782 783 786 787 789 795 798 800 803 808 811 811 810 810 813 815 815 815 816 818 818 817 817 818 819 821 822 822 823 822 822 823 823 824 824 824 825 825 826 826 826 826 827 827 827 827 827 827 827 828
774 774 774 775 776 776 777 778 777 777 777 776 775 775 775 775 775 775 776 777 776 777 778 780 782 784 784 786 787 786 787 788 788 788 789 789 789 790 791 794 799 803 805 807 810 814 815 814 816 817 818 818 818 818 819 820 820 820 821 822 823 824 825 825 825 825 826 826 826 827 827 827 827 827 827 827 828 828 829 829 828 828 828 828 828
775 775 776 776 777 778 780 781 781 781 782 781 780 780 780 780 780 781 782 782 782 782 783 784 786 788 788 790 791 790 790 791 792 794 795 794 794 795 797 799 802 806 809 810 812 815 817 818 819 820 821 821 821 821 822 822 822 823 824 824 825 826 826 827 827 828 828 828 828 829 829 829 829 829 829 829 829 830 830 830 829 829 829 829 829
776 777 777 778 779 780 781 783 784 785 786 786 785 785 785 785 785 785 786 787 787 787 787 789 790 790 790 792 794 793 793 795 797 798 798 799 800 801 803 805 807 809 811 812 814 816 818 819 821 822 822 823 823 824 824 825 825 826 826 827 827 827 828 828 829 830 830 830 830 830 830 830 831 831 831 831 831 831 831 831 830 830 829 829 830
778 779 780 781 782 782 783 786 787 788 789 790 789 790 790 790 790 791 791 792 792 792 792 794 795 795 794 795 796 797 798 799 801 802 802 804 806 807 808 809 810 811 812 814 815 818 819 821 822 823 824 825 825 826 827 827 827 828 829 829 830 830 830 830 831 831 832 832 832 832 832 832 832 832 832 832 832 832 832 832 832 831 830 830 830
781 782 783 784 784 785 786 787 788 790 791 792 793 793 793 793 794 796 797 797 797 798 798 799 800 801 800 800 800 801 802 804 805 806 807 808 809 810 811 812 812 813 814 815 817 820 822 823 824 825 826 827 827 828 829 829 830 831 831 832 833 833 833 833 833 833 834 833 833 833 833 833 833 833 833 833 833 833 833 833 833 833 832 831 831
784 785 786 786 787 788 788 789 790 791 793 794 795 796 796 797 797 799 801 802 802 802 803 804 805 805 805 805 805 806 807 808 809 810 811 812 813 813 814 814 815 816 817 818 820 823 825 826 827 828 828 829 830 830 831 832 833 833 834 835 835 835 835 835 835 835 835 835 835 835 835 834 834 834 834 835 834 834 834 834 835 835 834 833 833
786 787 788 789 789 790 790 791 792 793 794 795 796 797 798 800 801 802 804 805 806 807 807 808 809 809 809 809 810 810 811 812 813 814 814 815 816 817 817 817 818 819 820 821 824 826 827 828 829 830 830 831 832 833 833 834 835 836 836 837 837 838 837 837 836 836 837 837 837 836 836 836 835 835 836 836 836 836 836 836 836 836 836 835 834
788 788 789 790 791 791 792 793 794 794 795 797 798 799 801 802 803 804 806 807 809 810 811 811 812 812 812 813 813 814 815 815 816 817 817 818 819 819 820 820 821 822 824 825 826 828 829 830 831 832 833 834 834 835 836 836 837 837 838 838 839 839 839 838 838 838 838 838 838 838 838 837 837 837 837 837 838 838 838 837 837 837 837 837 836
788 789 790 791 792 793 794 795 795 796 797 798 799 801 802 803 805 807 808 809 811 812 813 814 815 815 815 816 816 817 818 818 818 819 819 820 821 821 822 822 824 825 826 828 829 830 831 832 833 834 835 835 836 836 837 837 838 838 839 839 839 840 840 840 839 839 839 839 839 839 839 839 839 839 839 839 839 839 839 839 839 838 838 838 838
789 790 792 793 794 795 795 796 797 797 798 799 800 802 803 805 807 808 810 811 813 814 815 816 816 817 817 818 818 819 819 820 820 821 821 822 822 823 824 825 826 827 828 830 831 832 833 834 834 835 836 836 837 838 838 838 839 839 839 840 840 840 841 841 841 840 840 840 840 840 840 840 840 840 840 840 841 840 840 840 840 840 840 840 839
790 791 793 795 795 796 797 797 798 799 799 800 801 803 804 805 807 809 811 812 813 815 816 817 817 818 818 819 820 820 820 821 822 822 823 823 824 825 826 827 828 829 830 831 832 833 834 835 835 836 837 837 838 838 839 840 840 841 841 841 841 841 841 842 842 842 842 842 842 842 842 842 842 842 842 842 841 841 841 841 841 841 841 841 841
792 793 795 796 796 797 798 798 798 799 800 801 802 803 805 807 808 810 811 812 814 815 816 817 818 819 819 819 820 820 821 822 823 823 824 825 826 826 827 828 829 830 831 832 833 834 835 836 837 837 838 838 839 839 840 840 841 842 842 842 843 843 843 843 843 843 843 843 843 843 843 843 843 843 843 842 842 842 842 842 842 842 841 841 842
794 795 796 796 796 797 797 798 798 799 800 801 802 804 805 807 808 809 810 812 813 814 815 817 818 819 820 820 820 821 821 822 823 824 825 826 827 827 828 829 830 831 832 833 834 835 836 837 838 838 839 840 840 841 841 841 841 842 842 843 844 844 844 844 844 844 844 844 844 844 844 843 843 843 843 842 842 842 842 842 843 842 842 842 842
794 796 796 796 796 797 797 798 798 798 799 801 802 803 805 806 807 808 809 811 812 814 815 817 818 819 820 821 821 821 822 822 823 824 825 826 827 828 829 830 831 832 833 834 835 836 837 838 839 840 840 841 841 841 842 842 842 842 843 843 844 845 845 845 845 845 845 844 844 844 844 843 843 843 843 843 843 843 843 843 844 844 844 843 843
795 796 797 797 797 796 797 798 799 799 800 801 801 803 804 805 806 808 809 810 812 813 815 817 818 819 820 821 821 821 821 822 823 824 825 827 828 829 830 831 832 832 834 835 836 837 838 839 840 841 841 842 842 842 842 843 843 844 844 844 845 845 845 846 845 845 845 845 844 844 844 844 844 843 843 843 843 843 843 844 845 845 845 845 845
796 797 797 797 797 796 797 798 799 800 801 801 802 803 803 804 805 807 808 809 810 812 814 816 817 818 820 820 821 821 821 822 823 824 826 827 828 829 830 831 832 833 834 836 837 838 839 839 841 842 842 843 843 843 844 844 844 845 845 845 845 846 846 846 846 846 845 845 844 844 844 844 844 844 844 844 844 844 845 846 846 846 846 846 846
796 797 797 797 797 796 797 798 799 800 801 802 803 804 804 805 806 806 807 808 810 811 813 815 816 818 819 820 821 821 821 822 823 825 826 827 828 829 830 832 833 834 835 836 837 839 839 840 841 842 843 844 844 844 845 845 845 845 846 845 845 846 846 846 846 846 845 845 845 845 845 845 845 846 846 846 846 846 846 847 847 847 847 847 847
796 797 797 797 797 797 798 799 800 800 801 802 804 804 805 806 806 807 807 808 809 811 813 814 816 818 819 820 821 821 822 822 824 825 826 827 828 829 830 832 833 834 835 837 838 839 839 840 842 843 844 845 845 846 846 846 846 846 846 845 846 846 846 846 846 846 846 846 845 845 846 846 846 847 847 847 847 847 847 848 848 848 848 848 848
796 796 796 797 797 798 799 800 800 801 802 803 803 804 805 806 806 807 808 809 809 811 812 814 816 817 818 819 821 821 821 823 824 825 826 827 827 828 830 832 833 834 835 836 838 839 840 841 842 843 844 845 846 846 846 846 846 846 845 845 846 846 846 846 846 846 847 847 847 847 847 847 847 847 848 848 848 848 848 849 849 849 849 849 849
796 796 796 797 797 798 799 800 801 802 802 803 804 804 805 805 805 806 808 809 810 811 812 813 815 816 817 819 820 821 822 823 824 824 826 827 827 828 830 831 833 834 835 837 838 839 840 842 842 843 845 846 846 847 847 846 846 845 845 845 845 845 845 846 846 846 847 847 847 848 848 848 848 848 849 849 850 850 850 850 850 850 850 850 850
795 796 796 797 797 799 800 800 801 802 802 803 803 804 805 805 805 806 808 809 810 811 812 812 814 816 817 819 820 821 822 823 823 824 826 827 827 829 830 831 832 834 835 837 839 840 841 842 843 844 846 847 847 847 847 846 846 845 846 846 845 845 845 846 847 847 847 847 848 848 849 848 849 849 850 850 850 850 850 851 851 851 851 851 850
793 794 795 796 797 798 799 800 801 801 802 803 803 804 805 806 806 807 809 809 809 810 811 811 813 815 817 818 820 821 822 823 823 825 826 827 828 829 831 831 833 834 835 837 839 840 841 843 844 845 847 847 847 847 846 846 846 846 846 846 846 846 846 847 847 848 848 848 848 848 849 849 849 850 850 850 850 850 850 851 852 852 852 851 850
792 793 794 796 797 798 799 800 801 801 802 803 804 805 806 807 808 809 809 810 810 811 811 811 812 814 815 817 819 820 821 822 823 824 825 826 828 829 831 832 833 835 836 838 840 841 842 843 844 846 847 847 847 847 846 847 847 847 847 846 846 846 846 847 848 848 849 849 848 849 849 849 850 851 851 851 851 851 851 852 852 852 852 851 850
792 793 794 796 797 798 799 800 800 801 802 804 805 805 806 807 808 809 810 810 811 811 812 812 813 814 815 816 818 819 820 822 823 824 824 826 828 829 831 833 834 835 837 839 840 842 843 843 844 846 847 846 846 846 847 847 848 847 847 846 846 846 847 847 848 849 849 849 849 849 849 850 851 851 852 852 852 852 852 853 852 852 852 851 851
Wind_Speed
16 18 17 16 18 17 17 19 19 19 18 18 19 19 18 18 18 18 18 18 19 19 17 16 16 17 17 17 16 16 15 14 13 12 12 13 13 12 12 13 12 12 12 13 11 10 8 7 7 6 6 5 4 5 5 6 5 4 6 7 4 4 2 3 3 3 4 7 7 5 4 7 9 7 6 7 5 5 6 6 5 5 5 6 7
15 17 17 17 17 17 17 18 19 19 19 19 19 19 19 19 19 19 19 19 18 18 19 18 16 16 17 17 17 16 15 15 14 12 12 14 14 12 11 12 13 11 11 12 11 9 8 8 7 6 5 5 4 4 6 7 7 7 8 8 6 6 3 2 1 1 5 10 10 9 7 7 9 8 6 7 8 7 7 7 6 7 6 6 8
13 15 17 19 17 16 16 16 17 19 20 19 19 20 19 19 19 19 19 19 19 18 18 18 18 17 16 16 16 16 15 14 14 14 14 15 15 14 12 12 11 11 10 11 10 9 8 8 6 5 4 4 4 4 6 7 7 6 6 7 7 7 4 3 2 2 4 7 8 8 8 9 11 11 9 9 11 11 11 8 5 5 8 9 8
13 12 13 17 19 19 17 16 17 20 20 20 20 20 20 19 19 20 19 18 18 19 19 18 19 20 19 17 16 15 16 16 15 15 16 16 15 14 14 14 12 11 10 10 9 9 8 6 4 4 4 4 4 5 6 6 6 6 7 9 8 5 4 5 5 3 3 4 6 7 8 11 12 12 11 11 11 12 11 8 5 5 8 9 8
12 12 11 12 16 21 22 20 19 20 20 21 21 20 20 20 19 20 20 19 18 18 19 18 18 19 19 18 17 15 15 15 15 16 16 15 15 14 13 13 12 11 10 10 9 9 9 7 6 5 4 4 5 5 5 5 6 8 10 10 9 6 5 5 6 5 3 3 6 7 8 10 10 10 10 11 12 11 9 7 4 4 6 7 7
12 12 12 12 13 17 21 23 23 21 20 20 21 21 21 20 20 20 20 20 20 18 18 18 18 18 19 18 17 16 15 15 15 15 15 14 14 14 12 11 11 10 10 10 10 11 10 8 7 5 4 5 5 5 5 6 6 8 10 10 8 6 6 7 6 5 4 3 4 6 7 9 9 8 7 6 6 7 8 7 4 4 5 5 5
12 13 13 13 13 14 16 20 23 22 20 19 18 19 22 22 21 21 20 19 20 19 18 18 18 18 18 18 17 16 16 16 16 15 15 14 13 12 11 10 10 10 10 10 10 10 9 6 4 3 3 4 4 4 4 5 6 7 7 6 5 5 7 8 7 5 5 5 4 5 7 8 8 8 7 4 2 2 6 10 7 6 6 5 4
11 13 13 13 14 14 14 14 16 17 19 20 19 18 20 23 22 21 21 19 20 19 18 18 19 19 18 17 17 16 15 15 16 16 15 14 13 12 11 11 10 9 9 9 10 10 8 5 2 2 2 2 3 4 4 5 6 6 6 5 6 7 7 6 5 5 6 5 4 4 6 7 8 8 9 8 5 3 6 10 10 8 7 6 5
10 12 13 13 14 15 15 13 10 11 16 21 22 20 19 19 21 22 21 20 19 20 19 18 18 18 18 17 17 17 16 16 15 15 14 14 14 13 12 11 10 9 10 9 8 8 5 1 0 1 2 3 4 5 6 7 7 6 6 7 8 7 5 4 4 5 5 5 4 5 6 7 7 7 8 8 8 8 7 8 9 9 7 6 5
10 12 13 14 15 17 18 15 8 9 16 19 21 22 20 18 19 20 22 21 19 18 19 18 18 17 17 18 18 17 16 16 15 15 15 15 14 13 12 11 10 10 8 7 9 9 5 1 1 3 4 4 5 6 7 6 5 6 7 7 9 9 8 6 5 4 4 4 5 6 6 6 6 5 6 5 5 6 4 5 7 7 6 6 4
11 11 12 14 16 16 18 17 12 13 19 20 20 21 21 20 18 17 18 21 21 19 17 17 17 18 17 17 18 17 17 17 15 15 16 16 14 12 10 9 9 8 7 5 7 8 6 4 4 5 5 4 5 5 4 4 5 5 6 7 8 8 8 8 6 5 5 5 5 5 5 5 6 6 6 5 4 5 4 3 5 6 6 6 4
13 12 12 14 15 15 16 17 17 17 20 21 18 19 21 21 19 17 14 14 17 19 18 18 17 18 18 17 18 18 18 17 17 17 17 16 15 13 9 8 7 7 9 9 8 8 8 6 5 4 3 2 4 4 3 4 5 5 4 5 6 6 7 7 6 5 6 4 4 7 5 3 2 2 3 4 3 4 3 2 4 6 7 7 6
15 14 14 14 15 13 14 17 20 20 20 20 17 19 24 25 22 20 16 11 10 11 12 15 18 19 19 18 17 18 18 18 18 18 17 16 16 15 12 9 4 3 6 10 9 7 7 5 3 2 3 5 5 5 4 5 5 5 4 5 6 6 6 6 3 2 2 2 7 11 9 4 5 6 5 5 5 4 3 3 5 6 6 6 7
14 14 15 15 14 14 14 16 19 19 19 20 19 19 24 26 22 19 16 12 11 11 11 12 14 16 18 20 18 13 14 18 20 19 18 18 19 18 14 8 4 4 5 5 5 6 6 3 1 2 4 5 5 4 5 5 4 6 6 7 8 7 6 8 8 8 9 10 13 15 13 11 10 9 6 5 4 4 5 5 5 4 5 5 6
14 16 18 17 14 14 15 16 16 17 17 18 18 17 18 19 17 14 13 13 16 19 18 15 13 13 15 18 18 12 11 16 19 19 19 18 18 16 11 6 5 6 6 4 2 2 2 1 1 1 2 3 4 5 5 4 4 8 11 13 14 14 14 14 14 16 17 18 19 18 16 14 13 11 8 5 4 4 4 5 5 3 3 7 9
15 16 18 19 17 15 15 15 15 15 15 14 14 16 16 14 14 17 19 18 17 17 18 19 18 16 15 14 13 10 12 15 17 18 18 17 16 13 8 8 8 7 7 6 5 5 5 4 3 2 1 2 4 5 4 4 6 10 14 16 19 21 22 20 20 21 22 22 23 21 20 18 16 14 12 9 9 8 7 8 9 6 5 8 10
13 14 15 17 18 18 16 14 14 13 13 12 11 14 17 15 15 20 22 19 17 16 16 17 19 20 17 13 10 10 14 17 18 18 17 16 14 10 8 9 9 8 8 7 6 5 5 5 5 3 1 1 3 5 5 7 10 14 17 19 21 22 22 21 21 22 22 22 22 21 21 21 21 20 18 15 13 12 13 14 14 11 10 8 8
13 13 14 15 16 16 17 15 13 11 10 11 11 14 18 20 20 22 22 20 20 20 18 17 19 21 19 14 11 12 15 18 19 18 17 16 14 10 8 10 11 11 10 7 5 5 6 5 4 3 1 2 4 6 7 8 13 18 19 20 20 18 17 17 17 18 19 19 20 20 20 21 22 23 23 23 20 17 17 18 16 15 14 11 8
13 13 13 15 15 14 14 13 9 7 8 9 12 14 17 20 19 18 18 19 22 24 22 19 18 19 18 13 11 13 16 18 18 18 17 17 14 11 10 12 14 13 11 10 8 7 9 9 7 5 4 5 8 10 11 13 17 20 20 19 19 16 15 15 15 15 16 17 18 19 19 19 20 21 22 24 25 23 21 19 18 17 17 15 12
12 12 12 13 14 13 13 13 11 6 3 4 8 9 10 14 16 15 14 14 17 23 25 20 14 12 12 11 11 12 16 18 17 16 16 16 15 14 12 14 16 14 12 11 10 10 12 14 13 12 11 12 13 15 18 19 20 20 19 19 18 16 15 16 15 15 16 17 17 19 19 18 18 19 19 20 23 24 22 20 19 19 18 17 16
11 12 13 13 13 14 13 12 13 12 8 3 1 2 3 7 10 12 14 15 16 19 20 17 13 12 13 14 13 11 12 15 15 15 15 15 15 15 15 17 19 18 16 14 13 14 16 16 15 15 15 17 18 19 21 22 21 21 21 20 19 17 16 16 16 16 17 17 17 17 17 17 18 18 19 19 19 19 21 21 20 20 20 18 16
11 11 13 13 14 16 16 15 15 14 13 10 8 6 4 1 3 7 11 14 15 16 16 14 13 12 11 11 10 10 9 9 11 14 16 16 17 19 19 20 22 21 20 19 19 20 21 20 20 19 19 21 22 23 23 23 23 24 23 22 20 19 19 18 18 19 19 19 19 18 18 17 18 18 18 18 17 16 17 19 19 18 18 18 17
13 13 13 14 15 16 17 17 17 17 15 14 14 13 10 7 7 8 11 13 15 16 16 14 12 11 9 6 4 5 6 6 7 12 17 19 19 21 23 21 21 22 24 26 27 27 27 27 26 25 25 26 27 27 27 26 26 25 24 23 23 21 20 19 19 20 20 21 21 21 19 18 18 18 17 17 15 14 14 14 15 15 15 14 14
13 14 14 15 18 18 18 19 19 19 19 17 17 16 15 13 13 12 13 16 18 18 17 17 16 14 12 10 9 6 6 7 5 7 19 27 24 22 23 22 22 26 31 32 31 31 31 30 29 28 28 29 29 29 28 27 27 27 26 25 24 23 22 21 20 20 20 20 19 19 18 18 18 18 17 15 15 14 12 11 11 11 11 10 10
11 12 13 15 16 17 18 19 20 21 21 21 20 19 18 16 15 15 17 19 19 20 20 21 22 21 19 18 20 19 17 17 14 11 18 31 31 26 27 29 30 34 36 34 32 31 31 31 31 30 29 29 31 30 27 26 27 28 28 27 25 23 22 21 21 21 20 19 18 16 15 15 15 17 17 16 16 15 15 14 12 10 9 8 8
11 12 14 15 17 17 17 17 18 19 21 22 23 21 20 19 18 17 18 20 21 22 23 23 22 23 22 22 24 26 27 28 27 25 29 36 38 35 36 37 36 36 35 33 31 30 30 32 34 31 28 27 28 27 24 24 26 27 27 26 25 24 23 22 21 21 20 18 18 17 15 12 12 14 15 17 17 16 15 15 13 11 10 8 9
12 13 15 16 18 19 19 18 18 20 22 23 24 24 23 22 21 20 18 19 21 21 22 21 21 21 22 22 24 27 28 30 32 32 34 38 39 39 40 39 36 35 35 33 31 30 30 31 31 27 24 23 24 23 22 22 24 24 24 24 23 23 22 22 22 21 20 19 18 17 17 15 14 13 13 15 17 17 15 14 14 13 11 10 11
14 15 16 17 18 20 20 19 20 23 26 27 26 25 25 25 24 21 18 17 18 20 21 21 20 21 22 21 23 25 26 27 29 30 33 36 38 38 39 37 35 34 34 34 31 29 28 26 25 23 23 23 24 24 25 25 24 24 24 23 23 22 21 21 22 21 20 19 18 17 17 17 17 15 14 14 16 16 15 13 14 15 14 14 14
13 15 15 16 18 19 20 20 20 21 24 27 27 26 25 24 24 22 19 18 19 21 23 22 21 22 23 22 22 24 25 27 28 30 32 33 35 36 37 37 36 34 33 32 29 25 22 20 19 19 19 20 22 23 23 24 25 25 23 22 22 21 21 21 20 19 19 18 17 17 16 15 16 15 14 13 14 14 14 14 14 14 14 15 15
12 14 15 15 16 18 19 20 20 18 18 21 25 28 26 24 24 23 22 21 21 23 26 25 25 27 28 27 27 28 29 28 29 31 32 33 34 35 35 33 31 27 23 20 17 15 15 15 16 17 17 18 19 20 21 22 23 23 23 22 21 21 21 20 18 17 17 17 16 15 14 14 14 14 13 12 11 11 13 14 14 14 12 12 12
14 15 15 15 15 17 19 19 18 18 18 19 23 27 29 29 28 26 25 25 25 26 28 28 28 29 31 31 30 30 30 29 29 30 31 31 30 27 24 21 18 15 13 14 15 17 19 19 19 19 19 19 20 19 19 20 20 20 21 21 21 20 20 20 18 17 17 17 16 16 15 14 13 13 14 14 12 13 15 15 16 16 15 13 12
15 14 15 15 15 16 18 19 18 18 18 18 20 23 27 30 31 29 27 26 26 27 28 28 28 28 28 29 29 28 28 29 29 28 27 23 21 18 17 18 19 19 21 23 24 24 23 21 21 21 20 20 20 19 20 20 20 20 19 19 20 20 19 19 18 16 17 16 16 15 15 15 14 13 14 15 15 15 16 16 16 17 17 15 13
14 14 14 15 15 15 16 16 18 19 18 18 19 19 20 23 26 27 28 27 27 26 25 24 24 24 23 23 24 25 26 27 25 23 21 20 19 19 21 22 23 24 26 27 25 23 22 21 21 21 21 21 21 21 21 20 19 19 19 18 19 19 18 17 17 16 16 15 14 14 15 15 15 14 14 14 15 14 15 15 16 16 16 15 14
13 14 14 14 14 15 15 15 17 19 19 19 19 19 19 19 20 21 22 22 23 24 23 22 21 21 21 22 22 24 25 24 22 21 22 22 22 21 22 24 24 24 25 25 24 22 21 21 21 21 21 21 21 21 21 20 19 18 18 17 18 18 18 17 16 16 15 14 14 14 14 15 15 15 14 14 15 15 14 14 14 15 15 15 14
12 12 13 13 13 14 15 15 15 17 19 21 20 20 20 19 19 18 17 17 18 20 21 22 21 21 22 23 23 23 22 21 21 21 21 20 19 19 21 22 22 22 22 22 22 21 21 21 21 21 20 20 20 20 20 20 19 19 17 15 15 16 17 18 17 16 15 14 13 13 14 14 15 15 14 14 14 14 14 14 13 14 14 14 14
11 11 11 13 13 13 13 14 14 14 16 18 19 20 20 20 19 19 18 18 18 18 19 21 21 20 20 20 20 20 19 18 18 16 15 15 16 18 19 20 20 20 21 21 21 21 20 20 19 19 18 18 17 16 17 17 17 17 16 15 15 15 16 17 17 15 14 13 13 12 13 13 13 13 13 13 13 12 12 12 13 13 13 14 14
12 11 11 11 12 12 12 13 14 13 14 15 16 17 19 20 19 18 17 17 16 16 17 18 17 17 17 17 17 17 17 15 14 14 15 17 17 18 18 18 18 18 19 19 19 19 19 18 18 17 17 17 16 15 15 14 13 12 12 14 15 15 15 16 16 14 13 12 12 12 12 13 12 12 12 12 12 12 12 12 13 13 13 14 14
15 14 12 10 11 11 11 11 12 13 15 16 15 15 16 17 17 17 16 16 15 15 15 14 14 14 16 16 16 16 16 15 14 14 15 16 17 17 17 17 17 17 17 17 17 17 17 17 17 16 15 15 14 14 14 14 14 13 12 13 14 15 15 15 14 13 11 11 11 11 11 12 13 13 12 11 11 13 14 14 13 11 11 13 13
15 14 13 11 9 10 10 10 11 12 12 13 15 16 16 15 15 15 15 15 14 14 14 14 13 13 14 16 17 17 15 13 11 11 12 14 16 17 17 16 16 16 16 16 15 16 16 16 14 13 12 12 12 12 11 11 12 13 13 14 14 14 14 14 13 11 10 10 10 10 9 9 10 11 10 9 9 11 11 12 12 12 11 13 13
10 10 10 7 5 7 8 9 10 12 12 12 14 15 15 14 14 15 15 15 14 14 15 14 14 12 12 14 14 11 8 9 11 12 12 14 15 15 15 15 15 15 15 14 14 15 14 13 12 11 12 12 11 9 8 8 9 9 9 11 11 12 13 13 11 10 9 9 8 8 8 8 8 9 10 11 12 12 13 13 14 15 14 14 13
7 7 6 4 4 6 6 6 7 9 10 11 13 14 14 13 12 12 14 14 13 13 14 15 14 13 12 11 10 5 2 7 12 13 11 12 13 13 12 12 13 14 14 13 13 13 12 10 9 10 11 10 9 8 8 9 10 11 11 10 10 10 11 11 10 10 9 8 8 8 9 8 9 10 11 11 11 12 13 14 14 14 14 14 14
7 5 4 5 5 5 5 6 6 6 5 6 9 12 15 14 12 11 12 13 13 13 14 14 14 13 11 9 7 3 1 3 9 11 11 11 12 11 10 10 11 13 13 13 11 10 11 11 10 9 9 9 8 9 9 10 10 11 11 11 10 10 10 10 9 9 8 6 7 9 9 9 10 11 11 10 10 11 13 14 12 11 11 12 13
6 5 4 4 5 4 5 9 8 5 4 3 4 6 8 10 12 13 12 12 14 15 14 12 12 12 10 8 4 2 2 3 8 11 11 11 11 10 11 11 12 12 12 12 10 9 10 11 10 9 9 9 9 9 10 9 9 9 10 10 9 9 8 8 8 8 8 6 7 8 9 7 9 11 12 11 11 13 14 13 12 11 11 11 12
6 6 6 6 8 3 5 6 6 7 8 5 4 4 3 3 6 8 9 10 14 15 13 12 11 10 9 7 5 4 3 6 11 12 11 10 10 11 13 13 12 11 11 11 10 9 10 11 10 9 8 7 8 9 10 10 9 9 9 10 10 9 9 8 8 7 7 8 8 8 9 8 7 9 10 10 11 13 13 11 11 12 12 12 12
6 7 7 6 4 2 4 3 3 8 9 7 7 8 7 5 5 4 4 6 11 13 13 11 11 10 10 9 8 6 5 8 10 10 9 8 9 12 14 13 10 10 10 9 8 9 9 9 9 8 6 6 7 7 8 8 9 9 9 9 9 8 8 8 8 7 6 7 8 9 8 8 9 9 10 11 12 12 11 11 11 11 11 11 11
5 5 5 5 4 5 5 4 2 5 5 6 6 7 8 9 9 8 5 4 6 11 14 14 11 10 11 9 7 6 7 8 7 6 6 8 11 14 14 10 8 9 10 9 9 9 9 9 8 7 7 7 7 6 7 8 8 6 6 5 7 6 3 4 5 6 5 6 8 8 7 8 10 11 10 11 13 12 11 11 11 10 10 11 11
6 5 5 5 5 5 5 4 3 3 4 5 5 5 6 7 7 8 7 5 5 7 12 14 12 9 9 8 5 5 6 6 6 6 7 8 11 14 14 11 10 11 11 10 9 9 9 9 8 8 9 8 6 6 8 8 6 3 2 6 10 7 2 6 5 6 7 7 8 7 6 8 10 11 9 9 9 9 9 10 10 10 10 10 11
9 8 8 7 6 6 6 6 6 6 7 6 6 7 7 7 5 5 7 7 8 7 9 11 12 10 8 7 6 5 5 5 6 7 7 6 7 9 10 11 12 13 12 10 9 9 11 10 8 7 8 6 4 5 6 6 3 2 6 11 11 4 5 7 6 7 8 8 8 6 6 7 9 9 8 7 6 6 8 9 9 10 10 9 9
10 9 8 7 7 6 6 6 6 6 6 5 5 5 5 5 5 3 3 6 8 6 6 9 14 13 9 8 8 7 6 5 5 6 6 6 7 8 8 9 11 12 12 11 11 11 12 10 7 5 5 3 2 4 5 4 1 5 11 13 8 2 5 5 6 7 7 8 8 7 7 8 9 8 8 8 9 9 9 8 8 9 8 8 9
9 8 7 7 7 6 6 6 6 6 6 5 4 4 4 4 5 4 4 5 6 4 4 5 11 12 11 10 9 8 7 7 6 6 8 9 9 9 9 9 10 11 11 12 12 11 10 8 6 5 3 2 2 2 2 0 4 9 12 10 4 2 4 6 7 8 7 8 8 7 6 7 8 7 6 8 11 11 9 8 8 7 7 8 9
9 7 6 8 8 7 7 7 6 6 6 6 5 6 6 5 5 6 6 6 6 5 4 3 4 6 8 9 9 9 9 9 8 9 11 12 12 11 10 9 10 11 11 11 11 9 8 7 6 4 2 3 4 3 2 2 5 10 11 6 2 3 5 8 9 7 6 8 9 9 8 8 7 6 6 7 9 9 7 7 7 6 7 8 9
Wind_Direction
226 224 221 223 225 225 216 208 210 216 217 216 214 214 212 210 211 210 209 209 211 215 215 215 213 206 206 212 216 221 222 220 222 223 222 225 229 232 238 245 251 261 265 261 264 280 291 296 294 290 291 295 309 320 320 321 321 328 331 324 353 36 347 279 294 311 329 326 319 322 330 329 328 324 333 339 312 272 283 289 290 278 244 233 245
222 227 226 225 228 234 228 214 211 215 218 218 216 216 214 211 212 212 211 213 212 211 212 216 221 214 209 211 213 218 221 218 217 218 220 227 229 230 236 246 252 256 258 258 264 273 279 283 282 276 282 288 294 315 327 334 336 337 339 341 3 18 345 260 235 268 305 309 317 336 339 321 318 316 318 320 307 302 300 288 291 301 291 269 258
228 231 232 231 232 239 238 228 220 216 218 222 220 219 216 212 212 214 215 213 211 213 213 215 220 221 220 219 216 217 221 217 214 217 222 227 229 227 229 239 246 246 248 255 260 262 264 273 280 274 276 287 300 319 328 334 334 332 337 340 348 4 3 315 271 232 281 302 312 326 324 316 319 318 311 304 303 313 317 308 298 299 297 288 278
236 232 236 239 238 241 242 239 235 226 220 221 224 224 222 217 213 216 219 216 212 214 217 217 218 219 222 226 224 220 220 217 215 218 222 227 229 226 225 231 237 237 238 244 248 252 255 257 267 271 273 286 298 307 315 321 322 319 324 327 331 349 2 344 331 310 275 281 293 302 308 314 322 327 325 317 313 317 320 323 316 287 288 293 293
244 238 240 246 248 247 242 236 239 241 230 222 224 227 228 225 217 216 220 221 218 215 215 219 220 217 218 224 227 225 223 221 220 220 222 226 227 225 226 232 234 232 235 241 247 252 254 258 263 260 263 282 291 297 306 314 315 313 316 320 324 327 332 339 342 333 305 277 288 301 316 319 320 333 342 343 340 333 327 334 326 281 283 285 281
250 250 245 247 254 253 248 238 235 243 245 234 227 224 227 231 226 219 218 221 223 220 215 218 222 219 217 221 226 227 225 225 226 227 228 230 231 228 229 230 229 233 241 247 253 256 256 260 263 257 258 275 283 292 303 308 308 312 320 329 330 326 324 329 333 331 330 319 300 307 326 325 319 332 353 358 348 327 313 312 290 268 299 298 285
252 256 254 250 253 253 254 247 236 241 254 253 247 237 228 228 231 227 222 220 223 225 220 218 222 224 222 223 225 228 228 226 229 232 233 236 240 238 234 233 232 238 246 249 255 258 249 238 239 249 258 271 283 296 308 313 312 317 330 338 328 314 318 327 330 326 333 339 327 316 326 329 325 328 332 317 251 246 302 310 296 286 315 329 326
263 262 258 255 256 253 257 260 249 250 255 250 255 263 244 230 230 230 227 224 224 228 227 222 220 221 225 228 227 229 232 230 230 234 235 238 244 245 243 243 238 239 251 254 247 238 225 209 210 260 269 268 278 287 299 306 311 319 330 331 322 320 323 327 319 316 328 334 324 319 331 337 331 324 324 327 341 354 324 316 310 304 319 353 15
281 275 269 263 264 261 262 268 268 272 265 244 243 260 263 248 239 234 230 230 227 228 230 231 227 221 219 227 231 230 233 234 232 233 235 235 238 242 245 247 244 248 257 259 253 243 233 211 129 290 280 270 270 280 293 301 302 303 312 319 319 317 316 315 311 309 315 317 321 337 347 342 334 332 336 340 350 351 324 307 312 316 330 1 33
291 282 275 267 266 265 264 267 270 271 269 259 251 257 265 266 259 245 235 233 232 232 231 231 235 231 219 221 231 229 227 231 232 233 234 232 234 240 245 244 244 250 261 289 318 320 325 6 245 257 270 272 270 278 295 311 310 301 307 311 311 310 306 305 308 304 301 308 326 343 356 357 356 0 359 358 6 8 345 303 313 326 344 7 34
297 285 276 268 267 268 267 267 267 258 260 265 267 266 266 268 270 264 249 237 231 232 234 232 237 241 230 220 223 227 227 228 230 235 236 232 231 235 239 240 245 259 274 293 303 292 271 236 239 258 271 280 278 281 301 318 308 305 311 309 307 307 301 294 290 295 301 302 320 346 358 353 349 348 351 3 32 35 19 322 329 353 12 21 24
305 295 285 275 271 269 265 262 259 254 252 256 263 268 268 266 266 270 272 258 238 231 232 231 232 242 244 233 220 219 225 226 225 232 238 236 229 226 230 238 246 266 269 256 250 253 249 238 239 248 251 271 284 291 306 312 316 329 329 317 320 322 320 311 290 287 303 307 359 25 17 328 332 9 5 2 24 38 27 3 17 26 28 30 31
312 308 299 286 277 269 257 254 253 249 245 245 248 256 259 257 256 260 267 273 268 258 253 244 235 236 245 248 235 222 219 221 223 229 236 239 233 229 234 237 221 206 237 243 248 250 239 225 203 216 255 274 284 289 282 285 320 348 338 332 344 349 1 12 7 350 359 74 81 66 60 62 60 65 62 37 22 16 3 0 22 30 29 34 49
330 329 319 302 287 272 262 257 254 247 243 242 241 247 254 254 255 265 274 271 258 260 276 280 264 248 244 250 252 240 220 219 225 228 232 235 232 230 235 234 198 162 185 212 236 236 226 223 212 246 281 290 291 297 294 293 337 19 31 38 36 40 54 55 56 65 76 89 90 79 72 65 54 49 51 52 39 2 339 353 12 16 24 46 75
351 348 340 329 312 288 276 272 262 249 244 243 237 237 251 256 253 263 277 267 244 238 243 252 263 269 265 256 253 246 219 215 219 220 223 224 221 222 222 196 155 148 159 167 168 169 166 162 289 299 324 310 303 317 327 337 35 68 76 76 71 71 76 77 77 78 79 80 79 74 66 59 53 48 44 54 67 37 358 16 25 13 53 78 85
355 348 342 340 335 320 301 290 277 260 250 245 239 238 247 254 247 243 247 247 242 240 239 237 240 253 269 267 252 228 205 204 204 204 208 209 208 209 197 166 149 133 132 141 142 141 138 119 86 45 331 274 314 346 14 52 84 96 96 91 88 86 84 83 81 80 78 75 73 69 63 57 53 52 52 60 71 71 69 57 41 35 76 90 81
353 345 340 340 341 340 329 312 297 283 265 252 244 241 240 235 227 230 235 236 235 233 233 236 235 236 244 251 242 218 205 200 196 197 201 202 198 192 173 157 148 134 132 137 136 131 126 121 118 121 211 298 25 50 80 96 105 110 107 102 100 97 91 85 80 77 77 74 71 67 62 56 50 48 50 55 65 74 70 53 37 39 60 77 85
350 346 346 347 346 347 344 331 310 296 279 257 242 239 238 233 226 224 226 227 230 228 225 228 228 229 233 232 221 216 211 201 196 196 198 196 185 169 157 149 137 131 132 129 117 101 93 106 144 168 178 54 67 85 104 115 118 119 116 110 103 97 92 87 82 79 76 73 70 67 62 56 49 45 45 47 53 63 61 50 45 49 50 49 70
354 352 352 355 355 355 357 356 334 298 284 263 248 249 253 248 240 229 218 214 220 222 221 222 224 227 228 215 201 207 206 197 195 194 192 189 176 161 157 147 137 135 131 117 106 91 79 79 82 76 75 91 97 101 109 116 118 118 115 106 95 89 87 86 84 82 78 72 69 67 63 59 53 50 48 46 49 56 60 58 59 59 52 47 52
360 1 3 6 10 10 9 18 27 21 336 264 246 257 265 255 243 230 212 202 211 219 219 216 211 207 198 176 173 195 200 193 190 187 188 187 177 169 165 148 138 138 130 113 100 89 82 81 80 79 90 106 112 114 114 114 114 112 107 97 91 89 89 88 86 82 78 73 70 67 64 61 57 55 54 51 50 55 58 60 61 60 60 60 57
9 13 17 19 25 27 22 24 39 50 61 83 201 250 258 244 236 224 209 201 205 209 205 193 174 162 157 151 150 166 187 193 189 182 185 186 176 168 161 150 143 137 123 108 98 93 90 89 89 93 102 109 112 113 114 114 113 108 101 97 97 96 92 88 86 83 79 76 74 70 66 63 61 58 57 55 54 54 56 60 64 63 63 67 67
22 24 26 29 32 34 34 36 41 49 60 73 76 74 80 151 187 174 168 168 170 170 165 154 142 135 136 142 144 144 158 185 193 186 183 177 167 159 152 149 149 141 122 109 104 102 100 98 98 101 104 105 105 106 106 106 105 103 102 101 100 95 90 87 86 83 80 76 73 69 65 62 60 57 56 55 54 51 50 55 63 66 65 67 70
44 41 39 41 41 39 38 42 46 47 52 63 72 74 77 90 110 123 123 117 113 115 118 118 114 109 103 102 117 139 152 166 184 187 177 164 153 150 146 143 143 135 120 112 110 108 104 101 100 101 102 101 100 100 99 98 98 98 99 97 93 90 88 86 84 81 78 74 71 68 64 60 58 56 53 50 47 44 43 45 52 62 69 69 68
54 53 53 56 58 56 50 48 50 52 55 62 67 69 72 82 88 91 94 94 90 90 95 99 97 93 86 82 84 95 132 139 135 170 167 156 145 139 138 134 130 124 117 113 112 109 106 103 100 97 97 97 96 94 93 94 94 94 93 91 89 87 85 83 81 79 76 73 71 69 66 62 60 57 53 48 45 44 47 49 46 51 67 78 79
53 53 54 56 61 64 61 56 53 54 60 65 65 64 68 73 75 75 79 83 82 80 83 87 89 88 85 85 86 85 93 105 97 90 122 130 128 126 126 122 119 117 113 110 110 109 107 105 100 95 92 91 90 88 86 86 87 88 87 85 83 80 78 76 76 75 73 70 69 69 68 67 67 63 57 52 50 48 51 54 49 44 53 70 82
58 56 55 54 55 58 60 60 56 53 58 62 62 61 66 70 70 69 69 73 76 77 78 81 85 89 87 85 88 88 88 95 97 92 94 103 109 114 115 113 113 113 111 108 106 104 102 100 97 92 88 85 84 84 83 82 81 80 79 77 74 72 70 69 68 67 66 64 62 60 57 60 70 70 59 52 51 49 45 44 45 43 41 50 65
65 64 63 61 61 61 61 61 60 58 61 66 64 62 64 68 71 71 68 71 77 80 82 85 86 90 92 91 93 96 94 95 98 100 100 102 105 109 110 109 110 110 109 107 104 100 96 93 91 90 88 87 86 87 86 82 78 76 75 74 72 69 66 65 64 62 60 58 57 56 52 51 58 62 60 57 54 50 44 39 37 32 30 47 56
72 71 71 68 67 68 66 65 65 63 63 66 67 66 66 67 70 70 70 76 85 89 91 93 93 94 97 97 97 97 98 98 99 102 105 108 109 109 109 108 107 106 105 104 102 98 95 93 91 92 91 89 86 84 81 78 76 75 72 71 71 69 66 64 63 61 58 55 55 55 52 49 48 47 52 59 56 49 43 38 34 31 34 49 52
80 77 76 75 74 74 71 68 68 67 64 63 63 66 71 74 75 76 78 86 97 100 99 99 102 102 102 101 100 99 97 100 104 107 108 109 109 109 108 107 107 108 108 107 107 107 105 103 103 102 98 93 89 85 80 77 74 72 69 67 67 66 62 59 57 57 56 54 53 53 51 50 48 43 43 51 53 50 46 40 36 37 42 50 47
77 75 73 73 76 79 76 73 72 73 74 72 69 69 72 78 84 87 91 97 104 108 107 106 109 110 108 106 105 104 104 106 110 111 110 110 109 108 108 108 110 113 113 111 113 116 111 104 101 99 95 91 87 83 80 77 72 69 65 63 61 59 55 53 52 52 54 53 50 49 48 49 50 46 39 37 44 53 54 45 37 35 38 49 49
70 73 70 69 72 77 81 84 83 83 85 84 81 79 78 80 84 88 95 101 104 105 107 108 109 109 109 108 106 106 107 110 110 110 109 109 108 106 105 104 103 103 101 96 92 93 91 86 83 84 84 83 83 81 80 78 74 70 65 59 56 52 49 50 51 49 49 49 46 45 43 40 43 47 38 30 37 52 56 48 37 28 25 36 43
75 78 78 76 75 76 84 93 96 94 93 90 88 86 84 82 82 85 91 98 102 103 104 106 106 105 105 105 104 105 107 110 109 107 104 101 97 95 92 91 91 93 95 93 88 86 86 84 81 80 80 79 79 79 78 75 72 71 68 61 55 48 44 48 52 50 48 47 43 42 38 31 36 49 45 34 35 47 54 51 43 31 21 22 32
82 84 81 79 79 80 84 92 98 101 101 99 95 93 91 88 87 88 90 95 99 102 103 102 103 103 102 101 102 105 110 110 106 100 96 93 92 93 94 94 97 98 98 94 89 87 86 85 83 81 78 76 75 75 76 75 72 71 68 63 56 49 44 47 52 52 50 46 41 43 39 29 32 48 51 42 36 39 47 52 49 39 24 14 21
84 88 88 85 85 84 82 85 94 101 104 106 104 100 98 98 97 94 94 93 93 96 99 101 102 102 104 106 108 112 114 111 104 100 101 99 96 97 96 94 94 95 94 92 90 89 87 85 84 82 80 78 77 76 75 73 71 69 69 65 59 51 45 45 45 46 49 46 41 44 42 32 31 42 49 46 40 36 38 44 46 44 29 14 18
92 95 99 97 92 91 90 89 93 100 105 108 107 103 99 98 96 95 95 94 92 92 97 102 105 105 107 112 117 120 119 114 110 110 108 102 97 96 94 90 88 89 91 91 91 90 89 87 86 85 84 84 84 82 81 79 75 71 70 68 62 53 47 44 39 38 45 46 40 43 47 39 32 37 45 47 43 38 36 35 37 43 35 19 20
103 94 95 97 95 96 100 99 97 100 105 108 109 109 106 102 100 100 100 100 99 99 102 106 108 108 109 113 119 122 121 117 115 110 97 89 93 95 92 90 89 89 90 92 93 93 93 92 92 93 92 90 86 83 84 84 79 74 74 77 74 63 52 45 38 34 41 45 37 38 49 47 37 37 45 48 44 41 39 35 34 38 37 29 21
102 97 92 95 98 97 99 105 106 103 103 106 108 111 113 114 113 112 110 109 110 110 110 112 112 110 111 113 115 117 116 113 108 98 86 86 93 96 95 96 97 96 96 97 97 96 94 93 92 91 88 86 81 77 79 80 74 71 75 77 74 68 57 47 38 33 39 44 39 36 42 46 46 46 47 46 43 39 35 36 38 35 34 36 24
92 96 93 93 100 103 104 110 115 115 115 116 114 111 113 114 115 117 118 119 121 121 121 120 118 117 120 123 121 116 113 107 103 99 96 98 99 98 98 99 98 99 100 98 97 96 93 91 91 89 88 90 87 81 81 79 69 61 61 60 58 59 57 47 37 35 38 39 42 44 43 44 50 53 48 44 49 46 36 34 37 33 35 43 28
94 102 109 108 117 131 135 134 131 125 123 122 117 114 115 117 119 124 127 129 130 129 127 125 124 125 133 136 134 128 123 116 110 104 102 103 102 100 101 102 102 102 101 97 96 96 92 90 94 93 89 92 92 85 85 85 71 57 53 52 47 49 54 47 36 34 41 41 42 49 49 46 55 62 50 36 49 64 56 39 28 25 37 50 37
112 117 124 121 124 137 145 151 146 134 126 124 123 122 125 131 137 142 141 139 138 136 131 127 126 133 144 149 148 145 133 118 113 107 101 102 104 103 107 112 111 110 108 106 106 105 100 98 103 97 86 86 88 80 77 86 82 70 67 66 53 45 49 47 34 30 43 47 44 50 53 42 43 57 51 33 36 55 60 47 31 23 27 42 43
124 118 121 130 135 130 129 135 135 128 131 141 143 138 136 140 145 145 140 138 139 136 130 128 131 141 155 162 166 175 138 106 114 116 113 112 112 109 111 116 115 113 112 107 103 105 106 104 102 95 86 84 81 64 51 55 64 66 70 73 65 47 42 41 34 33 43 44 36 45 52 35 24 40 48 35 33 47 52 48 42 30 19 26 40
121 126 134 149 169 173 153 135 120 106 115 137 141 143 150 154 153 145 141 142 143 137 131 131 137 150 167 174 173 189 249 119 123 124 117 114 115 116 116 113 108 108 110 107 101 104 106 99 89 84 81 77 71 64 58 54 53 53 54 59 61 51 40 37 35 35 39 37 31 40 47 29 16 30 39 31 34 53 54 46 43 36 23 25 39
141 149 145 173 229 230 148 138 145 151 152 140 121 131 151 156 151 152 156 154 144 136 132 133 139 154 173 183 179 216 261 160 133 126 120 122 128 132 128 121 112 109 111 112 111 113 111 102 92 86 80 73 67 67 69 67 60 55 54 55 57 53 45 42 40 35 28 20 23 42 53 39 22 31 36 32 40 56 57 45 33 28 25 28 38
161 170 178 218 250 250 117 129 153 149 145 150 137 122 119 121 138 156 166 155 142 139 138 137 141 151 166 176 187 209 192 139 129 128 130 137 138 131 126 126 124 120 118 118 119 121 116 105 99 93 84 76 71 67 67 66 63 59 58 57 56 55 51 44 37 32 25 15 18 42 60 59 45 38 33 32 44 55 55 46 35 28 26 27 30
167 188 201 219 230 147 129 163 138 116 128 160 169 157 164 177 175 180 184 158 148 148 145 143 147 154 159 171 193 201 158 128 128 136 142 147 142 131 127 128 129 128 127 123 121 121 114 105 106 108 101 90 82 71 68 71 68 66 70 71 62 57 58 49 38 34 30 20 23 40 56 61 62 56 40 34 42 50 50 47 43 33 26 24 23
193 203 201 194 172 153 169 186 122 105 145 193 190 171 181 190 181 174 180 184 166 153 148 150 159 162 159 168 190 183 140 129 141 148 138 133 136 136 135 134 132 130 127 119 113 115 113 108 111 114 106 98 89 74 72 76 75 78 92 71 26 15 57 88 66 55 50 33 30 42 54 55 58 59 48 35 36 40 42 44 42 34 25 22 21
197 197 200 194 179 169 173 169 156 165 193 201 192 190 212 216 188 157 152 177 193 169 159 159 162 161 157 162 173 166 151 153 157 141 120 119 130 134 136 138 134 128 121 116 116 118 112 106 105 102 97 95 88 72 69 71 74 87 74 7 357 1 104 139 115 91 84 67 49 46 50 53 57 62 60 48 38 36 39 38 32 27 25 22 19
190 190 201 197 179 174 176 175 183 192 194 195 195 194 204 215 198 154 151 173 189 192 180 161 147 142 153 161 163 165 168 160 138 122 116 119 124 127 132 137 135 128 123 119 120 120 114 108 103 99 99 99 91 83 85 85 84 40 357 351 354 24 135 142 131 117 101 80 64 56 53 57 61 60 54 48 44 47 52 47 32 21 18 12 8
195 187 187 178 172 176 172 168 182 191 183 181 190 185 183 189 182 163 181 189 189 203 202 164 147 146 155 162 163 167 163 151 139 137 140 135 123 120 126 129 128 129 128 123 120 123 121 112 106 113 120 109 86 96 107 112 62 350 346 348 356 102 149 142 134 131 110 78 69 69 61 59 61 54 38 35 46 55 58 52 38 21 4 353 355
187 178 171 167 174 175 160 163 189 192 168 163 179 179 173 180 176 175 195 196 191 218 241 180 161 164 167 166 171 180 177 174 179 172 155 143 134 134 137 132 126 130 134 129 126 130 128 118 124 146 149 110 98 118 141 264 342 345 344 347 5 127 152 147 140 133 110 79 69 70 70 67 65 56 30 27 40 49 49 43 36 19 353 347 357
169 173 173 169 173 169 159 170 192 178 157 167 189 179 173 186 187 179 184 186 185 203 229 217 179 179 174 171 182 190 188 192 196 177 154 144 139 137 140 141 138 139 140 136 135 137 135 134 149 169 172 156 170 197 236 288 341 349 351 1 54 106 136 145 145 135 106 73 59 63 77 78 68 58 42 29 30 34 33 31 27 7 348 353 2